FW4632 Weather Reports


time (UTC)temp
C
wind
direction
speed
KPH
gust
KPH
rain 1hr
cm
rain 24hr
cm
rain mn
cm
humidity
%
barometer
mb
20260506200005 -1 251 0.0 3.2 0.00 0.25 0.25 93 1010.5
20260506194504 0 251 0.0 3.2 0.00 0.25 0.25 93 1010.4
20260506193002 0 251 0.0 3.2 0.00 0.25 0.25 93 1010.2
20260506191501 0 251 0.0 3.2 0.00 0.25 0.25 93 1010.2
20260506190100 0 251 1.6 3.2 0.00 0.28 0.25 93 1010.2
20260506184600 0 251 3.2 6.4 0.00 0.28 0.25 93 1010.2
20260506183115 0 241 4.8 9.7 0.00 0.28 0.25 92 1010.1
20260506181602 0 245 4.8 8.0 0.00 0.28 0.25 90 1010.0
20260506180114 0 207 4.8 6.4 0.00 0.33 0.25 88 1009.9
20260506174556 0 271 6.4 9.7 0.00 0.33 0.25 88 1009.9
20260506173129 0 302 4.8 9.7 0.00 0.33 0.25 89 1009.9
20260506171554 0 330 3.2 6.4 0.00 0.33 0.25 88 1009.8
20260506170053 0 318 4.8 9.7 0.00 0.33 0.25 90 1009.7
20260506164553 0 320 4.8 8.0 0.00 0.33 0.25 89 1009.7
20260506163056 0 307 8.0 11.3 0.00 0.33 0.25 89 1009.6
20260506161555 0 316 6.4 12.9 0.00 0.33 0.25 86 1009.5
20260506160049 0 306 3.2 12.9 0.00 0.41 0.25 85 1009.4
20260506154549 0 319 9.7 14.5 0.00 0.41 0.25 86 1009.3
20260506153047 0 286 4.8 8.0 0.00 0.41 0.25 84 1009.3
20260506151547 0 313 3.2 6.4 0.00 0.41 0.25 82 1009.2
20260506150045 0 302 3.2 6.4 0.00 0.41 0.25 83 1009.2
20260506144559 0 314 3.2 4.8 0.00 0.41 0.25 84 1009.1
20260506143042 0 314 0.0 3.2 0.00 0.41 0.25 84 1009.1
20260506141541 0 314 1.6 4.8 0.00 0.41 0.25 83 1009.1
20260506140040 0 314 1.6 4.8 0.00 0.43 0.25 84 1009.1
20260506134539 0 302 3.2 9.7 0.00 0.43 0.25 86 1009.0
20260506133043 0 296 4.8 8.0 0.00 0.43 0.25 82 1009.0
20260506131537 2 127 0.0 3.2 0.00 0.43 0.25 79 1009.0
20260506130037 1 127 0.0 3.2 0.00 0.43 0.25 82 1009.0
20260506124532 1 127 0.0 1.6 0.00 0.43 0.25 81 1008.9
20260506123031 1 127 0.0 3.2 0.00 0.43 0.25 82 1008.9
20260506121529 2 127 1.6 3.2 0.03 0.43 0.25 82 1008.9
20260506120030 1 130 0.0 3.2 0.03 0.43 0.25 89 1008.8
20260506114527 0 297 0.0 3.2 0.03 0.43 0.25 91 1008.7
20260506113023 -1 297 1.6 6.4 0.03 0.43 0.25 92 1008.7
20260506111521 -1 323 4.8 16.1 0.00 0.43 0.23 92 1008.6
20260506110020 -1 304 11.3 16.1 0.00 0.43 0.23 89 1008.5
20260506104516 0 309 8.0 11.3 0.00 0.43 0.23 78 1008.2
20260506103015 2 176 0.0 3.2 0.03 0.43 0.23 74 1008.0
20260506101510 2 176 0.0 3.2 0.05 0.43 0.23 77 1007.9
20260506100010 1 176 0.0 3.2 0.05 0.48 0.23 79 1007.8
20260506094506 2 179 0.0 3.2 0.05 0.48 0.23 82 1007.8
20260506093004 2 179 0.0 3.2 0.05 0.46 0.23 83 1007.7
20260506091559 1 172 1.6 4.8 0.05 0.43 0.20 84 1007.7
20260506090100 1 200 1.6 8.0 0.05 0.48 0.20 86 1007.6
20260506084558 0 176 3.2 11.3 0.05 0.46 0.18 88 1007.6
20260506083058 0 260 6.4 12.9 0.10 0.46 0.18 90 1007.5
20260506081552 0 291 3.2 8.0 0.10 0.43 0.15 87 1007.3
20260506080104 1 270 3.2 6.4 0.15 0.51 0.15 92 1007.2
20260506073052 -1 327 3.2 6.4 0.08 0.43 0.08 91 1006.9
20260506071543 0 240 0.0 4.8 0.05 0.41 0.05 92 1006.8
20260506061536 0 240 4.8 8.0 0.00 0.33 0.00 93 1006.3
20260506044536 -1 240 8.0 12.9 0.00 0.33 0.00 94 1005.5
20260506043024 -1 247 6.4 11.3 0.00 0.33 0.00 94 1005.4
20260506041527 -1 180 4.8 8.0 0.00 0.33 0.00 94 1005.2
20260506040019 -2 300 3.2 6.4 0.00 0.33 0.00 94 1005.2
20260506034519 -2 311 4.8 6.4 0.00 0.33 0.00 94 1005.1
20260506033017 -2 291 4.8 8.0 0.00 0.33 0.00 93 1005.0
20260506031517 -2 248 0.0 3.2 0.00 0.33 0.00 93 1004.9
20260506030013 -2 243 4.8 9.7 0.00 0.33 0.00 94 1004.7
20260506024517 -2 292 3.2 8.0 0.00 0.33 0.00 93 1004.6
20260506023017 -2 318 3.2 4.8 0.00 0.33 0.00 93 1004.5
20260506021508 -2 316 3.2 8.0 0.00 0.33 0.00 93 1004.4
20260506020006 -2 310 4.8 9.7 0.00 0.33 0.00 95 1004.3
20260506014505 -2 246 4.8 8.0 0.00 0.33 0.00 95 1004.3
20260506013003 -2 231 4.8 8.0 0.00 0.33 0.00 95 1004.2
20260506011624 -2 259 1.6 4.8 0.00 0.33 0.00 95 1004.1
20260506010119 -2 259 0.0 3.2 0.00 0.33 0.00 95 1004.1
20260506004557 -2 250 0.0 3.2 0.00 0.33 0.00 95 1004.0
20260506003058 -2 250 1.6 3.2 0.00 0.33 0.00 96 1004.0
20260506001557 -2 250 0.0 3.2 0.00 0.33 0.00 95 1003.9
20260506000058 -2 250 0.0 4.8 0.00 0.33 0.00 95 1003.9
20260505234551 -1 250 3.2 4.8 0.00 0.33 0.00 95 1003.8
20260505233049 -1 245 3.2 6.4 0.00 0.33 0.00 96 1003.8
20260505231546 -2 282 3.2 4.8 0.00 0.33 0.00 95 1003.8
20260505230045 -1 281 1.6 4.8 0.00 0.33 0.00 95 1003.7
20260505224544 -1 269 0.0 3.2 0.00 0.33 0.00 95 1003.6
20260505223043 -1 269 1.6 4.8 0.00 0.33 0.00 95 1003.6
20260505221546 -2 296 3.2 3.2 0.00 0.33 0.00 95 1003.5
20260505220052 -1 296 0.0 3.2 0.00 0.33 0.33 95 1003.5
20260505214541 -1 301 4.8 6.4 0.00 0.33 0.33 95 1003.4
20260505213039 -1 305 0.0 4.8 0.00 0.33 0.33 95 1003.4
20260505211539 -1 306 0.0 6.4 0.00 0.33 0.33 95 1003.3
20260505210044 -1 260 1.6 6.4 0.00 0.33 0.33 95 1003.2
20260505204532 -1 259 6.4 9.7 0.00 0.33 0.33 95 1003.1
20260505203033 -1 241 4.8 11.3 0.00 0.33 0.33 95 1003.0
20260505201530 -1 264 4.8 8.0 0.00 0.33 0.33 95 1003.0